Weather Roundup
Issued by NWS

Home | Current Version | Previous Version | Text Only | Print | Product List | Glossary On
Versions: 1 2 3 4 5 6 7 8 9 10 11 12 13 14 15 16 17 18 19 20 21 22 23 24 25 26 27 28 29 30 31 32 33 34 35 36 37 38 39 40 41 42 43 44 45 46 47 48 49 50
000
NZUS93 KARX 221910
HRRWXR

CURRENT HOURLY OBSERVATIONS ACROSS
MUCH OF THE UPPER MISSISSIPPI VALLEY
NATIONAL WEATHER SERVICE LA CROSSE WI
200 PM CDT WED OCT 22 2014


...SOUTHEAST MINNESOTA...


CITY           SKY/WX    TMP DP  RH WIND       PRES   REMARKS
ROCHESTER      PTSUNNY   56  40  55 S17G29    30.18F
ROCHESTER/MAYO MOCLDY    55  37  50 SE14G22   30.18F
WINONA         SUNNY     59  37  44 S8        30.21F
AUSTIN         PTSUNNY   55  41  58 S12G23    30.16F
ALBERT LEA     MOSUNNY   57  43  58 SE18G24   30.13F
DODGE CENTER   PTSUNNY   55  41  58 S22       30.16F
PRESTON        SUNNY     55  40  56 S16G23    30.20F
OWATONNA       MOSUNNY   61  39  44 SE20G26   30.12F
FARIBAULT      MOSUNNY   61  43  51 SE16G28   30.12F
$$

...ELSEWHERE IN MINNESOTA...


CITY           SKY/WX    TMP DP  RH WIND       PRES   REMARKS
MINNEAPOLIS    CLOUDY    56  40  55 SE21G31   30.12F
INTNL FALLS    PTSUNNY   61  42  49 S9G22     29.95F
DULUTH         MOSUNNY   56  38  50 SE13      30.10F
RED WING       NOT AVBL
REDWOOD FALLS  PTSUNNY   67  44  43 S26G33    29.98F
MANKATO        SUNNY     61  41  48 SE21G29   30.08F
WORTHINGTON    PTSUNNY   66  46  48 S17G26    30.00F
FAIRMONT       MOSUNNY   63  41  45 S23G31    30.06F
$$

...SOUTHWEST WISCONSIN...


CITY           SKY/WX    TMP DP  RH WIND       PRES   REMARKS
LA CROSSE      SUNNY     59  37  44 S13       30.23F
PRAIRIE DU CHI SUNNY     58  37  46 SE6       30.26F
BOSCOBEL       SUNNY     59  38  45 VRB5      30.27F
LONE ROCK      SUNNY     61  39  44 SE10      30.28F
PLATTEVILLE    SUNNY     56  39  52 SE10      30.28F
FORT MC COY    SUNNY     58  33  39 S9        30.26F
CAMP DOUGLAS   MOSUNNY   57  37  47 SE10      30.26F
VIROQUA        FAIR      56  38  49 S9        30.25F
WIS DELLS      SUNNY     55  37  49 S12       30.28F
$$

...ELSEWHERE IN WISCONSIN...


CITY           SKY/WX    TMP DP  RH WIND       PRES   REMARKS
MILWAUKEE      MOSUNNY   51  40  65 E13       30.34F
MADISON        MOSUNNY   56  38  50 S7        30.29F
GREEN BAY      SUNNY     53  37  54 MISG      30.33F
EAU CLAIRE     SUNNY     57  36  45 SE15      30.20F
BLACK RVR FLS  FAIR      59  30  33 S6        30.24F
MEDFORD        SUNNY     51  34  52 SE8       30.25F
WAUSAU           N/A    N/A N/A N/A MISG      30.26F
WIS RAPIDS     SUNNY     54  34  46 S13       30.29F
MARSHFIELD     SUNNY     55  36  48 S10       30.25F
RICE LAKE      SUNNY     55  37  50 SE16      30.20F
$$

...NORTHEAST IOWA...


CITY           SKY/WX    TMP DP  RH WIND       PRES   REMARKS
DECORAH        SUNNY     57  37  47 S10G18    30.22F
MASON CITY     PTSUNNY   59  43  55 SE17G26   30.16F
CHARLES CITY   SUNNY     57  41  54 SE18      30.20F
OELWEIN        SUNNY     59  41  51 S16       30.23F
$$

...ELSEWHERE IN IOWA...


CITY           SKY/WX    TMP DP  RH WIND       PRES   REMARKS
DES MOINES     MOSUNNY   65  46  50 S18       30.16F
IOWA CITY      SUNNY     59  44  57 S10       30.26F
FORT DODGE     PTSUNNY   63  45  51 S12G21    30.12F
$$

...NORTHERN ILLINOIS...


CITY           SKY/WX    TMP DP  RH WIND       PRES   REMARKS
CHICAGO-OHARE  MOSUNNY   55  38  52 E7        30.32F
CHICAGO-MIDWAY SUNNY     56  38  50 VRB7      30.33F
MOLINE         SUNNY     59  40  49 SE13      30.28F
ROCKFORD       SUNNY     58  38  47 VRB6      30.31F
PEORIA         SUNNY     60  40  47 SE8       30.29F
$$

NOTE: "FAIR" INDICATES FEW OR NO CLOUDS BELOW 12,000 FEET WITH NO
SIGNIFICANT WEATHER AND/OR OBSTRUCTIONS TO VISIBILITY. WIND
SPEEDS ARE IN MILES-PER-HOUR.



USA.gov is the U.S. government's official web portal to all federal, state and local government web resources and services.